Change the Weather History Date:

Friday, July 19, 2013

  Actual Average Record
Temperature  
Mean Temperature 79 °F -  
Max Temperature 91 °F 83 °F 97 °F (1934)
Min Temperature 68 °F 59 °F 46 °F (1956)
Cooling Degree Days 14    
Growing Degree Days 29 (Base 50)    
Moisture  
Dew Point 69 °F    
Average Humidity 71    
Maximum Humidity 93    
Minimum Humidity 50    
Precipitation  
Precipitation 0.17 in - - ()
Sea Level Pressure  
Sea Level Pressure 29.89 in    
Wind  
Wind Speed 7 mph (SW)    
Max Wind Speed 16 mph    
Max Gust Speed 23 mph    
Visibility 10 miles    
Events Rain , Thunderstorm    
Averages and records for this station are not official NWS values.
T = Trace of Precipitation, MM = Missing Value Source: NWS Daily Summary

Daily Weather History Graph

Daily Weather History Graph

Search for Another Location

Airport or City:

Trip Planner

Search our weather history database for the weather conditions in past years. The results will help you decide how hot, cold, wet, or windy it might be!

Date:

Astronomy

Jul. 19, 2013 Rise Set
Actual Time 5:45 AM EDT 8:38 PM EDT
Civil Twilight 5:12 AM EDT 9:11 PM EDT
Nautical Twilight 4:30 AM EDT 9:53 PM EDT
Astronomical Twilight 3:41 AM EDT 10:42 PM EDT
Moon 5:38 PM EDT (7/19) 2:25 AM EDT (7/19)
Length of Visible Light 15h 59m
Length of Day
14h 52m
Waxing Gibbous, 86% of the Moon is Illuminated
Jul 19
Waxing Gibbous
Jul 22
Full
Jul 29
Last Quarter
Aug 6
New
Aug 14
First Quarter

Hourly Weather History & Observations

Time (EDT) Temp. Heat Index Dew Point Humidity Pressure Visibility Wind Dir Wind Speed Gust Speed Precip Events Conditions
12:56 AM 70.0 °F - 68.0 °F 93% 30.01 in 10.0 mi SSE 3.5 mph - N/A   Clear
1:56 AM 68.9 °F - 66.9 °F 93% 30.00 in 6.0 mi Calm Calm - N/A   Clear
2:56 AM 70.0 °F - 66.9 °F 90% 29.99 in 10.0 mi Calm Calm - N/A   Clear
3:56 AM 70.9 °F - 66.9 °F 87% 29.97 in 10.0 mi South 5.8 mph - N/A   Clear
4:56 AM 70.9 °F - 66.9 °F 87% 29.96 in 10.0 mi South 6.9 mph - N/A   Clear
5:56 AM 70.9 °F - 66.9 °F 87% 29.96 in 10.0 mi SSE 5.8 mph - N/A   Clear
6:30 AM 71.6 °F - 68.0 °F 88% 29.97 in 10.0 mi SSE 5.8 mph - N/A   Clear
6:56 AM 73.9 °F - 68.9 °F 84% 29.95 in 10.0 mi SSE 4.6 mph - N/A   Clear
7:56 AM 77.9 °F - 70.0 °F 76% 29.96 in 10.0 mi SSW 8.1 mph - N/A   Clear
8:56 AM 81.9 °F 86.0 °F 70.9 °F 69% 29.95 in 10.0 mi SW 9.2 mph - N/A   Clear
9:56 AM 84.9 °F 91.4 °F 72.9 °F 67% 29.94 in 10.0 mi WSW 9.2 mph - N/A   Clear
10:56 AM 86.9 °F 94.1 °F 72.9 °F 63% 29.93 in 10.0 mi WSW 12.7 mph 17.3 mph N/A   Partly Cloudy
11:56 AM 88.9 °F 95.6 °F 72.0 °F 57% 29.91 in 10.0 mi West 15.0 mph 23.0 mph N/A   Scattered Clouds
12:56 PM 88.9 °F 94.7 °F 70.9 °F 55% 29.89 in 10.0 mi WSW 11.5 mph - N/A   Mostly Cloudy
1:56 PM 88.9 °F 93.8 °F 70.0 °F 53% 29.87 in 10.0 mi WSW 9.2 mph 18.4 mph N/A   Mostly Cloudy
2:56 PM 90.9 °F 96.2 °F 70.0 °F 50% 29.83 in 10.0 mi SW 16.1 mph - N/A   Scattered Clouds
3:56 PM 90.9 °F 96.2 °F 70.0 °F 50% 29.81 in 10.0 mi SW 16.1 mph - N/A   Mostly Cloudy
4:56 PM 90.9 °F 96.2 °F 70.0 °F 50% 29.80 in 10.0 mi WSW 16.1 mph 21.9 mph N/A   Scattered Clouds
5:56 PM 90.0 °F 95.4 °F 70.0 °F 52% 29.78 in 10.0 mi SW 13.8 mph 18.4 mph N/A   Mostly Cloudy
6:56 PM 88.0 °F 93.8 °F 70.9 °F 57% 29.78 in 10.0 mi SW 15.0 mph - N/A   Scattered Clouds
7:56 PM 86.9 °F 92.5 °F 70.9 °F 59% 29.82 in 10.0 mi WSW 9.2 mph - N/A   Scattered Clouds
8:56 PM 83.8 °F 88.1 °F 70.0 °F 63% 29.81 in 10.0 mi WSW 6.9 mph - N/A   Scattered Clouds
9:56 PM 79.0 °F - 64.9 °F 62% 29.83 in 10.0 mi North 13.8 mph - N/A   Mostly Cloudy
10:33 PM 75.2 °F - 64.4 °F 69% 29.85 in 10.0 mi North 4.6 mph - N/A Thunderstorm Mostly Cloudy
10:56 PM 73.9 °F - 63.9 °F 71% 29.83 in 10.0 mi Calm Calm - N/A Thunderstorm Thunderstorm
11:26 PM 69.8 °F - 66.2 °F 88% 29.86 in 5.0 mi North 3.5 mph - 0.17 in Rain Light Rain
11:56 PM 68.9 °F - 66.9 °F 93% 29.84 in 10.0 mi Calm Calm - 0.17 in   Overcast